PulseSat

PulseSat

MOLNIYA 1-80

Last updated on April 20, 2019, 3:02 a.m. UTC

1 21118U 91012A   19109.40655890 -.00000256  00000-0  69124-1 0  9990
2 21118  63.6769 105.5617 6812056 288.9585  12.3951  2.05243396207295
UTC
Height (km)
Latitude
Longitude
Inclination
Orbital Period

Next 30 passes for location: Hong Kong

Rise time Rise Azimuth (degrees) Set time Set Azimuth (degrees) Duration Max altitude (degrees)

No matching passes for this satellites

PulseSat

PulseSat is the new satellites software and hardware trackering solution by Pulsely.
Satellite Two Line Element Set source: US Air Force Space Command

Download PulseSat for iOS
© 2017 Pulsely Limited